Simultaneous Nadir Overpasses (SNOs) Predictions

Prediction of SNOs between GOES-17 and AQUA Satellite Orbit:

Table of predicted SNOs for the next 14.0 days since TLE Epoch: 12/27/2019
Index Date Time (GOES-17) GOES-17 Lat,Lon AQUA Lat,Lon Distance(km) Time Diff (sec)
1 12/29/2019 10:36:37 0.03,-137.20 -0.30,-135.67 174.17 80
2 12/29/2019 23:00:41 -0.03,-137.20 -0.83,-140.86 416.53 80
3 12/31/2019 22:48:30 -0.03,-137.20 -0.18,-137.90 80.31 80
4 01/02/2020 22:33:39 -0.03,-137.19 0.47,-134.95 255.54 80
5 01/03/2020 10:57:34 0.03,-137.19 0.64,-140.10 330.15 80
6 01/05/2020 10:45:22 0.04,-137.18 0.05,-137.13 5.60 80
7 01/07/2020 10:30:31 0.04,-137.16 -0.61,-134.18 339.45 80
8 01/07/2020 22:54:35 -0.05,-137.15 -0.52,-139.37 251.93 80
9 01/09/2020 22:39:43 -0.05,-137.12 0.08,-136.40 81.36 80




NCC Satellite Simultaneous Nadir Overpasses (SNOs) Prediction Service
